This is the latest recevied weather packets stored in our database for station/object KD4EG. If no packets are shown the sender has not sent any weather packets the latest 10 day(s).
| Time | Temp. | Humidity | Pressure | Rain* | Wind** | Luminosity | Snow |
|---|---|---|---|---|---|---|---|
| 1777503529 | 17.78° C | 99% | 1009.5 hPa | 0 mm | - | 49 W/m² | - |
| 1777503225 | 17.78° C | 99% | 1009.5 hPa | 0 mm | - | 36 W/m² | - |
| 1777502922 | 17.78° C | 99% | 1009.4 hPa | 0 mm | - | 43 W/m² | - |
| 1777502619 | 17.78° C | 99% | 1009.5 hPa | 0 mm | - | 64 W/m² | - |
| 1777502316 | 17.78° C | 99% | 1009.6 hPa | 0 mm | - | 50 W/m² | - |
| 1777502013 | 17.22° C | 99% | 1009.3 hPa | 0 mm | - | 40 W/m² | - |
| 1777501709 | 17.22° C | 99% | 1009.5 hPa | 0 mm | - | 40 W/m² | - |
| 1777501407 | 17.78° C | 99% | 1009.2 hPa | 0 mm | - | 46 W/m² | - |
| 1777501104 | 17.78° C | 99% | 1009.3 hPa | 0 mm | - | 47 W/m² | - |
| 1777500802 | 17.78° C | 99% | 1009.4 hPa | 0 mm | - | 42 W/m² | - |
| 1777500500 | 17.22° C | 99% | 1009.1 hPa | 1.78 mm | - | 65 W/m² | - |
| 1777500196 | 17.78° C | 99% | 1009.3 hPa | 1.78 mm | - | 55 W/m² | - |
| 1777499893 | 17.22° C | 99% | 1009.3 hPa | 0 mm | - | 59 W/m² | - |
| 1777499589 | 17.22° C | 99% | 1009.3 hPa | 0 mm | - | 31 W/m² | - |
| 1777499286 | 17.22° C | 99% | 1009.3 hPa | 0 mm | - | 23 W/m² | - |
| 1777498984 | 17.22° C | 99% | 1009.5 hPa | 0 mm | - | 39 W/m² | - |
| 1777498680 | 17.22° C | 99% | 1009.3 hPa | 0 mm | - | 47 W/m² | - |
| 1777498376 | 17.22° C | 99% | 1009.4 hPa | 0 mm | - | 38 W/m² | - |
| 1777498074 | 17.22° C | 99% | 1009.4 hPa | 0 mm | - | 77 W/m² | - |
| 1777497770 | 17.22° C | 99% | 1009.7 hPa | 0 mm | - | 66 W/m² | - |
| 1777497467 | 17.22° C | 99% | 1009.6 hPa | 0 mm | - | 84 W/m² | - |
| 1777497163 | 17.22° C | 99% | 1009.8 hPa | 0 mm | - | 61 W/m² | - |
| 1777496860 | 17.22° C | 99% | 1010 hPa | 0 mm | - | 81 W/m² | - |
| 1777496557 | 17.22° C | 99% | 1009.5 hPa | 0 mm | - | 58 W/m² | - |
| 1777496253 | 17.22° C | 99% | 1009.8 hPa | 0 mm | - | 97 W/m² | - |
* Rain latest hour (hover to see other rain measurements)
** Current wind speed in m/s (hover to see current wind gust speed)